PRIVATE WETTERSTATION BILLIGHEIM-ALLFELD                       ZURCK
Wetterdaten: Samstag, 01.01.2022
Datum Zeit Temp. A. Temp. A. min Temp. A. max Feuchte A. Luftdruck Regen Wind Richtung Richtung Sonnenschein ET Solar Taupunkt Windchill Windben Empfang
01.01.2022 00:00 9,6 C 9,6 C 9,7 C 93 % 1025,6 hPa 0,0 l/m 0,0 km/h (0 Bft) SW 225 0 min 0,000 mm 0 W/m 8,5 C 9,6 C 8,0 km/h (2 Bft) 97 %
01.01.2022 00:10 9,6 C 9,6 C 9,6 C 93 % 1025,5 hPa 0,0 l/m 1,6 km/h (1 Bft) SW 225 0 min 0,000 mm 0 W/m 8,5 C 9,6 C 11,3 km/h (2 Bft) 98 %
01.01.2022 00:20 9,6 C 9,6 C 9,6 C 93 % 1025,6 hPa 0,0 l/m 1,6 km/h (1 Bft) SW 225 0 min 0,000 mm 0 W/m 8,5 C 9,6 C 9,7 km/h (2 Bft) 97 %
01.01.2022 00:30 9,6 C 9,6 C 9,6 C 93 % 1025,8 hPa 0,0 l/m 1,6 km/h (1 Bft) SW 225 0 min 0,000 mm 0 W/m 8,5 C 9,6 C 8,0 km/h (2 Bft) 97 %
01.01.2022 00:40 9,5 C 9,5 C 9,6 C 92 % 1025,8 hPa 0,0 l/m 0,0 km/h (0 Bft) N 0 0 min 0,000 mm 0 W/m 8,3 C 9,5 C 0,0 km/h (0 Bft) 97 %
01.01.2022 00:50 9,5 C 9,5 C 9,5 C 92 % 1025,8 hPa 0,0 l/m 0,0 km/h (0 Bft) SW 225 0 min 0,000 mm 0 W/m 8,3 C 9,5 C 3,2 km/h (1 Bft) 98 %
01.01.2022 01:00 9,4 C 9,4 C 9,5 C 92 % 1025,7 hPa 0,0 l/m 0,0 km/h (0 Bft) N 0 0 min 0,000 mm 0 W/m 8,2 C 9,4 C 0,0 km/h (0 Bft) 97 %
01.01.2022 01:10 9,4 C 9,4 C 9,5 C 92 % 1025,9 hPa 0,0 l/m 0,0 km/h (0 Bft) SW 225 0 min 0,000 mm 0 W/m 8,2 C 9,4 C 8,0 km/h (2 Bft) 98 %
01.01.2022 01:20 9,4 C 9,4 C 9,4 C 92 % 1026,0 hPa 0,0 l/m 1,6 km/h (1 Bft) SW 225 0 min 0,000 mm 0 W/m 8,2 C 9,4 C 8,0 km/h (2 Bft) 98 %
01.01.2022 01:30 9,4 C 9,4 C 9,4 C 92 % 1026,2 hPa 0,0 l/m 3,2 km/h (1 Bft) W-SW 247 0 min 0,000 mm 0 W/m 8,2 C 9,4 C 9,7 km/h (2 Bft) 98 %
01.01.2022 01:40 9,4 C 9,4 C 9,5 C 92 % 1026,3 hPa 0,0 l/m 1,6 km/h (1 Bft) W-SW 247 0 min 0,000 mm 0 W/m 8,2 C 9,4 C 11,3 km/h (2 Bft) 97 %
01.01.2022 01:50 9,4 C 9,4 C 9,5 C 92 % 1026,2 hPa 0,0 l/m 0,0 km/h (0 Bft) W-SW 247 0 min 0,000 mm 0 W/m 8,2 C 9,4 C 9,7 km/h (2 Bft) 98 %
01.01.2022 02:00 9,3 C 9,3 C 9,4 C 92 % 1026,2 hPa 0,0 l/m 0,0 km/h (0 Bft) W-SW 247 0 min 0,000 mm 0 W/m 8,1 C 9,3 C 1,6 km/h (1 Bft) 97 %
01.01.2022 02:10 9,3 C 9,3 C 9,4 C 92 % 1026,1 hPa 0,0 l/m 0,0 km/h (0 Bft) N 0 0 min 0,000 mm 0 W/m 8,1 C 9,3 C 0,0 km/h (0 Bft) 98 %
01.01.2022 02:20 9,3 C 9,3 C 9,3 C 92 % 1026,2 hPa 0,0 l/m 0,0 km/h (0 Bft) W-SW 247 0 min 0,000 mm 0 W/m 8,1 C 9,3 C 6,4 km/h (2 Bft) 98 %
01.01.2022 02:30 9,2 C 9,2 C 9,3 C 92 % 1026,2 hPa 0,0 l/m 0,0 km/h (0 Bft) SW 225 0 min 0,000 mm 0 W/m 8,0 C 9,2 C 8,0 km/h (2 Bft) 98 %
01.01.2022 02:40 9,2 C 9,2 C 9,3 C 92 % 1026,2 hPa 0,0 l/m 3,2 km/h (1 Bft) SW 225 0 min 0,000 mm 0 W/m 8,0 C 9,2 C 9,7 km/h (2 Bft) 98 %
01.01.2022 02:50 9,2 C 9,2 C 9,2 C 92 % 1026,3 hPa 0,0 l/m 0,0 km/h (0 Bft) SW 225 0 min 0,000 mm 0 W/m 8,0 C 9,2 C 3,2 km/h (1 Bft) 97 %
01.01.2022 03:00 9,2 C 9,2 C 9,3 C 92 % 1026,3 hPa 0,0 l/m 0,0 km/h (0 Bft) N 0 0 min 0,000 mm 0 W/m 8,0 C 9,2 C 0,0 km/h (0 Bft) 98 %
01.01.2022 03:10 9,2 C 9,2 C 9,2 C 92 % 1026,2 hPa 0,0 l/m 0,0 km/h (0 Bft) N 0 0 min 0,000 mm 0 W/m 8,0 C 9,2 C 0,0 km/h (0 Bft) 97 %
01.01.2022 03:20 9,2 C 9,2 C 9,3 C 92 % 1026,3 hPa 0,0 l/m 0,0 km/h (0 Bft) N 0 0 min 0,000 mm 0 W/m 8,0 C 9,2 C 0,0 km/h (0 Bft) 97 %
01.01.2022 03:30 9,3 C 9,2 C 9,3 C 92 % 1026,2 hPa 0,0 l/m 0,0 km/h (0 Bft) SW 225 0 min 0,000 mm 0 W/m 8,1 C 9,3 C 4,8 km/h (1 Bft) 98 %
01.01.2022 03:40 9,3 C 9,2 C 9,3 C 92 % 1026,1 hPa 0,0 l/m 0,0 km/h (0 Bft) W-SW 247 0 min 0,000 mm 0 W/m 8,1 C 9,3 C 8,0 km/h (2 Bft) 98 %
01.01.2022 03:50 9,3 C 9,3 C 9,3 C 92 % 1026,2 hPa 0,0 l/m 1,6 km/h (1 Bft) W-SW 247 0 min 0,000 mm 0 W/m 8,1 C 9,3 C 11,3 km/h (2 Bft) 97 %
01.01.2022 04:00 9,3 C 9,3 C 9,4 C 92 % 1026,2 hPa 0,0 l/m 0,0 km/h (0 Bft) W-SW 247 0 min 0,000 mm 0 W/m 8,1 C 9,3 C 6,4 km/h (2 Bft) 97 %
01.01.2022 04:10 9,3 C 9,3 C 9,3 C 92 % 1026,2 hPa 0,0 l/m 0,0 km/h (0 Bft) W-SW 247 0 min 0,000 mm 0 W/m 8,1 C 9,3 C 1,6 km/h (1 Bft) 97 %
01.01.2022 04:20 9,2 C 9,2 C 9,3 C 92 % 1026,2 hPa 0,0 l/m 0,0 km/h (0 Bft) N 0 0 min 0,000 mm 0 W/m 8,0 C 9,2 C 0,0 km/h (0 Bft) 98 %
01.01.2022 04:30 9,2 C 9,2 C 9,2 C 92 % 1026,2 hPa 0,0 l/m 0,0 km/h (0 Bft) N 0 0 min 0,000 mm 0 W/m 8,0 C 9,2 C 0,0 km/h (0 Bft) 97 %
01.01.2022 04:40 9,2 C 9,2 C 9,2 C 92 % 1026,2 hPa 0,0 l/m 0,0 km/h (0 Bft) N 0 0 min 0,000 mm 0 W/m 8,0 C 9,2 C 0,0 km/h (0 Bft) 97 %
01.01.2022 04:50 9,2 C 9,2 C 9,2 C 92 % 1026,1 hPa 0,0 l/m 0,0 km/h (0 Bft) N 0 0 min 0,000 mm 0 W/m 8,0 C 9,2 C 0,0 km/h (0 Bft) 98 %
01.01.2022 05:00 9,2 C 9,2 C 9,2 C 92 % 1026,1 hPa 0,0 l/m 0,0 km/h (0 Bft) S 180 0 min 0,000 mm 0 W/m 8,0 C 9,2 C 6,4 km/h (2 Bft) 98 %
01.01.2022 05:10 9,1 C 9,1 C 9,2 C 92 % 1026,1 hPa 0,0 l/m 0,0 km/h (0 Bft) N 0 0 min 0,000 mm 0 W/m 7,9 C 9,1 C 0,0 km/h (0 Bft) 97 %
01.01.2022 05:20 9,0 C 9,0 C 9,1 C 92 % 1026,0 hPa 0,0 l/m 0,0 km/h (0 Bft) S 180 0 min 0,000 mm 0 W/m 7,8 C 9,0 C 1,6 km/h (1 Bft) 100 %
01.01.2022 05:30 9,0 C 9,0 C 9,0 C 92 % 1026,0 hPa 0,0 l/m 1,6 km/h (1 Bft) S 180 0 min 0,000 mm 0 W/m 7,8 C 9,0 C 8,0 km/h (2 Bft) 99 %
01.01.2022 05:40 8,9 C 8,9 C 9,0 C 92 % 1026,1 hPa 0,0 l/m 3,2 km/h (1 Bft) S 180 0 min 0,000 mm 0 W/m 7,7 C 8,9 C 11,3 km/h (2 Bft) 100 %
01.01.2022 05:50 8,9 C 8,9 C 8,9 C 92 % 1026,0 hPa 0,0 l/m 4,8 km/h (1 Bft) S-SW 202 0 min 0,000 mm 0 W/m 7,7 C 8,9 C 11,3 km/h (2 Bft) 100 %
01.01.2022 06:00 8,9 C 8,9 C 8,9 C 92 % 1026,1 hPa 0,0 l/m 8,0 km/h (2 Bft) S-SW 202 0 min 0,000 mm 0 W/m 7,7 C 7,7 C 14,5 km/h (3 Bft) 99 %
01.01.2022 06:10 8,9 C 8,9 C 8,9 C 92 % 1026,2 hPa 0,0 l/m 4,8 km/h (1 Bft) S-SW 202 0 min 0,000 mm 0 W/m 7,7 C 8,9 C 11,3 km/h (2 Bft) 100 %
01.01.2022 06:20 8,9 C 8,9 C 8,9 C 92 % 1026,3 hPa 0,0 l/m 0,0 km/h (0 Bft) N 0 0 min 0,000 mm 0 W/m 7,7 C 8,9 C 0,0 km/h (0 Bft) 100 %
01.01.2022 06:30 8,9 C 8,8 C 8,9 C 92 % 1026,3 hPa 0,0 l/m 0,0 km/h (0 Bft) SW 225 0 min 0,000 mm 0 W/m 7,7 C 8,9 C 6,4 km/h (2 Bft) 100 %
01.01.2022 06:40 8,9 C 8,8 C 8,9 C 92 % 1026,3 hPa 0,0 l/m 0,0 km/h (0 Bft) W-SW 247 0 min 0,000 mm 0 W/m 7,7 C 8,9 C 9,7 km/h (2 Bft) 100 %
01.01.2022 06:50 8,9 C 8,8 C 8,9 C 92 % 1026,4 hPa 0,0 l/m 0,0 km/h (0 Bft) W-SW 247 0 min 0,000 mm 0 W/m 7,7 C 8,9 C 4,8 km/h (1 Bft) 100 %
01.01.2022 07:00 8,8 C 8,8 C 8,9 C 92 % 1026,3 hPa 0,0 l/m 0,0 km/h (0 Bft) N 0 0 min 0,000 mm 0 W/m 7,6 C 8,8 C 0,0 km/h (0 Bft) 100 %
01.01.2022 07:10 8,8 C 8,8 C 8,9 C 92 % 1026,5 hPa 0,0 l/m 1,6 km/h (1 Bft) SW 225 0 min 0,000 mm 0 W/m 7,6 C 8,8 C 8,0 km/h (2 Bft) 99 %
01.01.2022 07:20 8,8 C 8,8 C 8,9 C 92 % 1026,6 hPa 0,0 l/m 0,0 km/h (0 Bft) N 0 0 min 0,000 mm 0 W/m 7,6 C 8,8 C 0,0 km/h (0 Bft) 100 %
01.01.2022 07:30 8,8 C 8,8 C 8,9 C 92 % 1026,6 hPa 0,0 l/m 0,0 km/h (0 Bft) N 0 0 min 0,000 mm 0 W/m 7,6 C 8,8 C 0,0 km/h (0 Bft) 100 %
01.01.2022 07:40 8,8 C 8,8 C 8,8 C 92 % 1026,6 hPa 0,0 l/m 0,0 km/h (0 Bft) N 0 0 min 0,000 mm 0 W/m 7,6 C 8,8 C 0,0 km/h (0 Bft) 100 %
01.01.2022 07:50 8,8 C 8,8 C 8,8 C 92 % 1026,7 hPa 0,0 l/m 0,0 km/h (0 Bft) N 0 0 min 0,000 mm 0 W/m 7,6 C 8,8 C 0,0 km/h (0 Bft) 100 %
01.01.2022 08:00 8,7 C 8,7 C 8,8 C 92 % 1026,7 hPa 0,0 l/m 0,0 km/h (0 Bft) N 0 0 min 0,000 mm 0 W/m 7,5 C 8,7 C 0,0 km/h (0 Bft) 100 %
01.01.2022 08:10 8,7 C 8,7 C 8,8 C 92 % 1026,6 hPa 0,0 l/m 0,0 km/h (0 Bft) N 0 0 min 0,000 mm 0 W/m 7,5 C 8,7 C 0,0 km/h (0 Bft) 100 %
01.01.2022 08:20 8,7 C 8,7 C 8,7 C 92 % 1026,5 hPa 0,0 l/m 0,0 km/h (0 Bft) N 0 0 min 0,000 mm 0 W/m 7,5 C 8,7 C 0,0 km/h (0 Bft) 89 %
01.01.2022 08:30 8,7 C 8,7 C 8,7 C 92 % 1026,5 hPa 0,0 l/m 0,0 km/h (0 Bft) N 0 0 min 0,000 mm 5 W/m 7,5 C 8,7 C 0,0 km/h (0 Bft) 100 %
01.01.2022 08:40 8,7 C 8,6 C 8,7 C 92 % 1026,5 hPa 0,0 l/m 0,0 km/h (0 Bft) N 0 0 min 0,000 mm 7 W/m 7,5 C 8,7 C 0,0 km/h (0 Bft) 100 %
01.01.2022 08:50 8,6 C 8,6 C 8,7 C 92 % 1026,7 hPa 0,0 l/m 0,0 km/h (0 Bft) N 0 0 min 0,000 mm 18 W/m 7,4 C 8,6 C 0,0 km/h (0 Bft) 100 %
01.01.2022 09:00 8,6 C 8,6 C 8,6 C 92 % 1026,9 hPa 0,0 l/m 0,0 km/h (0 Bft) N 0 0 min 0,000 mm 19 W/m 7,4 C 8,6 C 0,0 km/h (0 Bft) 100 %
01.01.2022 09:10 8,7 C 8,6 C 8,7 C 92 % 1026,8 hPa 0,0 l/m 0,0 km/h (0 Bft) N 0 0 min 0,000 mm 26 W/m 7,5 C 8,7 C 0,0 km/h (0 Bft) 100 %
01.01.2022 09:20 8,7 C 8,6 C 8,7 C 92 % 1026,9 hPa 0,0 l/m 0,0 km/h (0 Bft) N 0 0 min 0,000 mm 30 W/m 7,5 C 8,7 C 0,0 km/h (0 Bft) 100 %
01.01.2022 09:30 8,7 C 8,7 C 8,7 C 92 % 1027,0 hPa 0,0 l/m 0,0 km/h (0 Bft) N 0 0 min 0,000 mm 28 W/m 7,5 C 8,7 C 0,0 km/h (0 Bft) 100 %
01.01.2022 09:40 8,8 C 8,7 C 8,8 C 92 % 1027,1 hPa 0,0 l/m 0,0 km/h (0 Bft) N 0 0 min 0,000 mm 30 W/m 7,6 C 8,8 C 0,0 km/h (0 Bft) 100 %
01.01.2022 09:50 8,8 C 8,8 C 8,9 C 92 % 1027,1 hPa 0,0 l/m 0,0 km/h (0 Bft) N 0 0 min 0,000 mm 33 W/m 7,6 C 8,8 C 0,0 km/h (0 Bft) 100 %
01.01.2022 10:00 8,9 C 8,8 C 8,9 C 92 % 1027,2 hPa 0,0 l/m 0,0 km/h (0 Bft) N 0 0 min 0,025 mm 37 W/m 7,7 C 8,9 C 0,0 km/h (0 Bft) 100 %
01.01.2022 10:10 8,9 C 8,9 C 8,9 C 92 % 1027,2 hPa 0,0 l/m 0,0 km/h (0 Bft) N 0 0 min 0,000 mm 39 W/m 7,7 C 8,9 C 0,0 km/h (0 Bft) 100 %
01.01.2022 10:20 9,0 C 8,9 C 9,0 C 92 % 1027,2 hPa 0,0 l/m 0,0 km/h (0 Bft) N 0 0 min 0,000 mm 51 W/m 7,8 C 9,0 C 0,0 km/h (0 Bft) 100 %
01.01.2022 10:30 9,1 C 9,1 C 9,1 C 92 % 1027,3 hPa 0,0 l/m 0,0 km/h (0 Bft) N 0 0 min 0,000 mm 65 W/m 7,9 C 9,1 C 0,0 km/h (0 Bft) 100 %
01.01.2022 10:40 9,2 C 9,1 C 9,2 C 92 % 1027,3 hPa 0,0 l/m 0,0 km/h (0 Bft) N 0 0 min 0,000 mm 72 W/m 8,0 C 9,2 C 0,0 km/h (0 Bft) 100 %
01.01.2022 10:50 9,3 C 9,2 C 9,3 C 92 % 1027,2 hPa 0,0 l/m 0,0 km/h (0 Bft) N 0 0 min 0,000 mm 88 W/m 8,1 C 9,3 C 0,0 km/h (0 Bft) 100 %
01.01.2022 11:00 9,5 C 9,3 C 9,5 C 92 % 1027,1 hPa 0,0 l/m 0,0 km/h (0 Bft) N 0 0 min 0,025 mm 111 W/m 8,3 C 9,5 C 0,0 km/h (0 Bft) 100 %
01.01.2022 11:10 9,6 C 9,5 C 9,6 C 93 % 1027,0 hPa 0,0 l/m 0,0 km/h (0 Bft) N 0 0 min 0,000 mm 123 W/m 8,5 C 9,6 C 0,0 km/h (0 Bft) 100 %
01.01.2022 11:20 9,7 C 9,6 C 9,8 C 93 % 1027,0 hPa 0,0 l/m 0,0 km/h (0 Bft) SW 225 0 min 0,000 mm 142 W/m 8,6 C 9,7 C 1,6 km/h (1 Bft) 89 %
01.01.2022 11:30 9,9 C 9,7 C 9,9 C 93 % 1027,0 hPa 0,0 l/m 0,0 km/h (0 Bft) N 0 10 min 0,000 mm 283 W/m 8,8 C 9,9 C 0,0 km/h (0 Bft) 100 %
01.01.2022 11:40 10,1 C 9,9 C 10,1 C 92 % 1027,0 hPa 0,0 l/m 0,0 km/h (0 Bft) S-SW 202 10 min 0,000 mm 257 W/m 8,9 C 10,1 C 4,8 km/h (1 Bft) 100 %
01.01.2022 11:50 10,6 C 10,1 C 10,6 C 92 % 1026,9 hPa 0,0 l/m 0,0 km/h (0 Bft) S-SW 202 10 min 0,000 mm 248 W/m 9,4 C 10,6 C 4,8 km/h (1 Bft) 100 %
01.01.2022 12:00 10,8 C 10,6 C 10,8 C 91 % 1026,7 hPa 0,0 l/m 1,6 km/h (1 Bft) S-SW 202 10 min 0,076 mm 213 W/m 9,4 C 10,8 C 8,0 km/h (2 Bft) 100 %
01.01.2022 12:10 10,8 C 10,8 C 10,8 C 90 % 1026,7 hPa 0,0 l/m 0,0 km/h (0 Bft) S-SW 202 10 min 0,000 mm 227 W/m 9,2 C 10,8 C 1,6 km/h (1 Bft) 100 %
01.01.2022 12:20 10,9 C 10,8 C 10,9 C 90 % 1026,6 hPa 0,0 l/m 0,0 km/h (0 Bft) S-SW 202 10 min 0,000 mm 232 W/m 9,3 C 10,9 C 6,4 km/h (2 Bft) 100 %
01.01.2022 12:30 10,8 C 10,8 C 10,9 C 89 % 1026,5 hPa 0,0 l/m 0,0 km/h (0 Bft) S-SW 202 10 min 0,000 mm 153 W/m 9,1 C 10,8 C 4,8 km/h (1 Bft) 100 %
01.01.2022 12:40 10,8 C 10,8 C 10,8 C 90 % 1026,4 hPa 0,0 l/m 1,6 km/h (1 Bft) S-SW 202 0 min 0,000 mm 151 W/m 9,2 C 10,8 C 6,4 km/h (2 Bft) 100 %
01.01.2022 12:50 10,8 C 10,8 C 10,8 C 90 % 1026,4 hPa 0,0 l/m 0,0 km/h (0 Bft) N 0 10 min 0,000 mm 172 W/m 9,2 C 10,8 C 0,0 km/h (0 Bft) 100 %
01.01.2022 13:00 11,0 C 10,8 C 11,0 C 89 % 1026,3 hPa 0,0 l/m 0,0 km/h (0 Bft) S 180 10 min 0,076 mm 225 W/m 9,3 C 11,0 C 1,6 km/h (1 Bft) 100 %
01.01.2022 13:10 11,2 C 11,0 C 11,2 C 88 % 1026,1 hPa 0,0 l/m 0,0 km/h (0 Bft) N 0 10 min 0,000 mm 227 W/m 9,3 C 11,2 C 0,0 km/h (0 Bft) 100 %
01.01.2022 13:20 11,2 C 11,1 C 11,2 C 88 % 1025,9 hPa 0,0 l/m 0,0 km/h (0 Bft) N 0 10 min 0,000 mm 218 W/m 9,3 C 11,2 C 0,0 km/h (0 Bft) 100 %
01.01.2022 13:30 11,3 C 11,2 C 11,3 C 87 % 1025,9 hPa 0,0 l/m 0,0 km/h (0 Bft) N 0 10 min 0,000 mm 171 W/m 9,2 C 11,3 C 0,0 km/h (0 Bft) 100 %
01.01.2022 13:40 11,4 C 11,3 C 11,4 C 87 % 1025,9 hPa 0,0 l/m 0,0 km/h (0 Bft) N 0 10 min 0,000 mm 158 W/m 9,3 C 11,4 C 0,0 km/h (0 Bft) 100 %
01.01.2022 13:50 11,4 C 11,4 C 11,4 C 88 % 1025,8 hPa 0,0 l/m 0,0 km/h (0 Bft) S-SO 157 10 min 0,000 mm 163 W/m 9,5 C 11,4 C 1,6 km/h (1 Bft) 100 %
01.01.2022 14:00 11,5 C 11,4 C 11,5 C 87 % 1025,6 hPa 0,0 l/m 1,6 km/h (1 Bft) S-SO 157 10 min 0,076 mm 183 W/m 9,4 C 11,5 C 6,4 km/h (2 Bft) 100 %
01.01.2022 14:10 11,5 C 11,4 C 11,5 C 87 % 1025,5 hPa 0,0 l/m 0,0 km/h (0 Bft) S-SO 157 0 min 0,000 mm 149 W/m 9,4 C 11,5 C 1,6 km/h (1 Bft) 100 %
01.01.2022 14:20 11,5 C 11,5 C 11,5 C 87 % 1025,3 hPa 0,0 l/m 0,0 km/h (0 Bft) S-SO 157 0 min 0,000 mm 139 W/m 9,4 C 11,5 C 1,6 km/h (1 Bft) 100 %
01.01.2022 14:30 11,6 C 11,5 C 11,6 C 86 % 1025,4 hPa 0,0 l/m 0,0 km/h (0 Bft) N 0 0 min 0,000 mm 139 W/m 9,3 C 11,6 C 0,0 km/h (0 Bft) 100 %
01.01.2022 14:40 11,7 C 11,6 C 11,7 C 86 % 1025,4 hPa 0,0 l/m 0,0 km/h (0 Bft) S 180 0 min 0,000 mm 149 W/m 9,4 C 11,7 C 6,4 km/h (2 Bft) 100 %
01.01.2022 14:50 11,6 C 11,6 C 11,7 C 86 % 1025,4 hPa 0,0 l/m 0,0 km/h (0 Bft) N 0 0 min 0,000 mm 120 W/m 9,3 C 11,6 C 0,0 km/h (0 Bft) 100 %
01.01.2022 15:00 11,7 C 11,6 C 11,7 C 86 % 1025,4 hPa 0,0 l/m 0,0 km/h (0 Bft) N 0 0 min 0,051 mm 123 W/m 9,4 C 11,7 C 0,0 km/h (0 Bft) 100 %
01.01.2022 15:10 11,9 C 11,7 C 11,9 C 85 % 1025,3 hPa 0,0 l/m 0,0 km/h (0 Bft) N 0 0 min 0,000 mm 113 W/m 9,5 C 11,9 C 0,0 km/h (0 Bft) 100 %
01.01.2022 15:20 11,8 C 11,8 C 11,9 C 85 % 1025,2 hPa 0,0 l/m 0,0 km/h (0 Bft) N 0 0 min 0,000 mm 63 W/m 9,4 C 11,8 C 0,0 km/h (0 Bft) 100 %
01.01.2022 15:30 11,8 C 11,8 C 11,8 C 85 % 1025,2 hPa 0,0 l/m 0,0 km/h (0 Bft) N 0 0 min 0,000 mm 63 W/m 9,4 C 11,8 C 0,0 km/h (0 Bft) 99 %
01.01.2022 15:40 11,8 C 11,8 C 11,8 C 85 % 1025,2 hPa 0,0 l/m 0,0 km/h (0 Bft) N 0 0 min 0,000 mm 62 W/m 9,4 C 11,8 C 0,0 km/h (0 Bft) 100 %
01.01.2022 15:50 11,8 C 11,8 C 11,8 C 85 % 1025,1 hPa 0,0 l/m 0,0 km/h (0 Bft) N 0 0 min 0,000 mm 42 W/m 9,4 C 11,8 C 0,0 km/h (0 Bft) 100 %
01.01.2022 16:00 11,9 C 11,8 C 11,9 C 84 % 1025,1 hPa 0,0 l/m 0,0 km/h (0 Bft) S 169 0 min 0,001 mm 23 W/m 9,3 C 11,9 C 0,0 km/h (0 Bft) 100 %
01.01.2022 16:10 11,9 C 11,9 C 11,9 C 85 % 1025,0 hPa 0,0 l/m 0,0 km/h (0 Bft) S 169 0 min 0,025 mm 18 W/m 9,5 C 11,9 C 0,0 km/h (0 Bft) 97 %
01.01.2022 16:20 11,9 C 11,9 C 12,0 C 85 % 1025,0 hPa 0,0 l/m 0,0 km/h (0 Bft) S 169 0 min 0,001 mm 12 W/m 9,5 C 11,9 C 0,0 km/h (0 Bft) 98 %
01.01.2022 16:30 11,7 C 11,7 C 11,9 C 84 % 1024,9 hPa 0,0 l/m 0,0 km/h (0 Bft) S 169 0 min 0,000 mm 5 W/m 9,1 C 11,7 C 0,0 km/h (0 Bft) 97 %
01.01.2022 16:40 11,3 C 11,3 C 11,7 C 85 % 1024,7 hPa 0,0 l/m 0,0 km/h (0 Bft) S 169 0 min 0,000 mm 0 W/m 8,9 C 11,3 C 0,0 km/h (0 Bft) 98 %
01.01.2022 16:50 10,9 C 10,9 C 11,3 C 86 % 1024,7 hPa 0,0 l/m 0,0 km/h (0 Bft) S 169 0 min 0,000 mm 0 W/m 8,7 C 10,9 C 0,0 km/h (0 Bft) 97 %
01.01.2022 17:00 10,6 C 10,6 C 10,9 C 87 % 1024,8 hPa 0,0 l/m 0,0 km/h (0 Bft) S 169 0 min 0,000 mm 0 W/m 8,5 C 10,6 C 0,0 km/h (0 Bft) 98 %
01.01.2022 17:10 10,2 C 10,2 C 10,6 C 87 % 1024,8 hPa 0,0 l/m 0,0 km/h (0 Bft) S 169 0 min 0,000 mm 0 W/m 8,1 C 10,2 C 0,0 km/h (0 Bft) 98 %
01.01.2022 17:20 9,8 C 9,8 C 10,2 C 88 % 1024,7 hPa 0,0 l/m 0,0 km/h (0 Bft) S 169 0 min 0,000 mm 0 W/m 7,9 C 9,8 C 0,0 km/h (0 Bft) 97 %
01.01.2022 17:30 9,5 C 9,5 C 9,8 C 89 % 1024,8 hPa 0,0 l/m 0,0 km/h (0 Bft) S 169 0 min 0,000 mm 0 W/m 7,8 C 9,5 C 0,0 km/h (0 Bft) 97 %
01.01.2022 17:40 9,3 C 9,3 C 9,5 C 90 % 1024,7 hPa 0,0 l/m 0,0 km/h (0 Bft) S 169 0 min 0,000 mm 0 W/m 7,7 C 9,3 C 0,0 km/h (0 Bft) 97 %
01.01.2022 17:50 9,1 C 9,1 C 9,3 C 91 % 1024,6 hPa 0,0 l/m 0,0 km/h (0 Bft) S 169 0 min 0,000 mm 0 W/m 7,7 C 9,1 C 0,0 km/h (0 Bft) 97 %
01.01.2022 18:00 8,9 C 8,8 C 9,1 C 92 % 1024,4 hPa 0,0 l/m 0,0 km/h (0 Bft) S-SO 167 0 min 0,000 mm 0 W/m 7,7 C 8,9 C 1,6 km/h (1 Bft) 97 %
01.01.2022 18:10 8,8 C 8,8 C 8,9 C 91 % 1024,4 hPa 0,0 l/m 0,0 km/h (0 Bft) S 173 0 min 0,000 mm 0 W/m 7,4 C 8,8 C 0,0 km/h (0 Bft) 98 %
01.01.2022 18:20 8,5 C 8,5 C 8,8 C 91 % 1024,4 hPa 0,0 l/m 0,0 km/h (0 Bft) S 173 0 min 0,000 mm 0 W/m 7,1 C 8,5 C 0,0 km/h (0 Bft) 97 %
01.01.2022 18:30 8,4 C 8,4 C 8,5 C 92 % 1024,4 hPa 0,0 l/m 0,0 km/h (0 Bft) S 173 0 min 0,000 mm 0 W/m 7,2 C 8,4 C 0,0 km/h (0 Bft) 97 %
01.01.2022 18:40 8,2 C 8,2 C 8,4 C 92 % 1024,6 hPa 0,0 l/m 0,0 km/h (0 Bft) S 173 0 min 0,000 mm 0 W/m 7,0 C 8,2 C 0,0 km/h (0 Bft) 98 %
01.01.2022 18:50 7,9 C 7,9 C 8,2 C 92 % 1024,7 hPa 0,0 l/m 0,0 km/h (0 Bft) S 173 0 min 0,000 mm 0 W/m 6,7 C 7,9 C 0,0 km/h (0 Bft) 97 %
01.01.2022 19:00 7,5 C 7,5 C 7,9 C 92 % 1024,6 hPa 0,0 l/m 0,0 km/h (0 Bft) S 173 0 min 0,000 mm 0 W/m 6,3 C 7,5 C 0,0 km/h (0 Bft) 98 %
01.01.2022 19:10 7,3 C 7,3 C 7,5 C 92 % 1024,3 hPa 0,0 l/m 0,0 km/h (0 Bft) S 173 0 min 0,000 mm 0 W/m 6,1 C 7,3 C 0,0 km/h (0 Bft) 97 %
01.01.2022 19:20 7,1 C 7,1 C 7,3 C 93 % 1024,2 hPa 0,0 l/m 0,0 km/h (0 Bft) S 173 0 min 0,000 mm 0 W/m 6,0 C 7,1 C 0,0 km/h (0 Bft) 97 %
01.01.2022 19:30 7,0 C 7,0 C 7,1 C 93 % 1024,2 hPa 0,0 l/m 0,0 km/h (0 Bft) S 173 0 min 0,000 mm 0 W/m 5,9 C 7,0 C 0,0 km/h (0 Bft) 98 %
01.01.2022 19:40 6,9 C 6,9 C 7,0 C 92 % 1024,1 hPa 0,0 l/m 0,0 km/h (0 Bft) S 173 0 min 0,000 mm 0 W/m 5,7 C 6,9 C 0,0 km/h (0 Bft) 98 %
01.01.2022 19:50 6,7 C 6,7 C 6,9 C 93 % 1024,2 hPa 0,0 l/m 0,0 km/h (0 Bft) S-SW 198 0 min 0,000 mm 0 W/m 5,6 C 6,7 C 0,0 km/h (0 Bft) 100 %
01.01.2022 20:00 6,5 C 6,5 C 6,7 C 93 % 1024,2 hPa 0,0 l/m 0,5 km/h (0 Bft) W-SW 248 0 min 0,000 mm 0 W/m 5,5 C 6,5 C 4,8 km/h (1 Bft) 100 %
01.01.2022 20:10 6,3 C 6,3 C 6,5 C 93 % 1023,9 hPa 0,0 l/m 0,0 km/h (0 Bft) W-SW 248 0 min 0,000 mm 0 W/m 5,3 C 6,3 C 0,0 km/h (0 Bft) 100 %
01.01.2022 20:20 6,1 C 6,1 C 6,3 C 93 % 1023,8 hPa 0,0 l/m 0,0 km/h (0 Bft) W-SW 248 0 min 0,000 mm 0 W/m 5,1 C 6,1 C 0,0 km/h (0 Bft) 100 %
01.01.2022 20:30 5,9 C 5,9 C 6,1 C 93 % 1023,5 hPa 0,0 l/m 0,0 km/h (0 Bft) W-SW 248 0 min 0,000 mm 0 W/m 4,9 C 5,9 C 0,0 km/h (0 Bft) 100 %
01.01.2022 20:40 6,0 C 5,9 C 6,0 C 92 % 1023,6 hPa 0,0 l/m 0,0 km/h (0 Bft) W-SW 248 0 min 0,000 mm 0 W/m 4,8 C 6,0 C 0,0 km/h (0 Bft) 99 %
01.01.2022 20:50 5,8 C 5,8 C 6,0 C 92 % 1023,6 hPa 0,0 l/m 0,0 km/h (0 Bft) W-SW 248 0 min 0,000 mm 0 W/m 4,6 C 5,8 C 0,0 km/h (0 Bft) 100 %
01.01.2022 21:00 5,7 C 5,7 C 5,8 C 92 % 1023,6 hPa 0,0 l/m 0,0 km/h (0 Bft) W-SW 249 0 min 0,000 mm 0 W/m 4,5 C 5,7 C 0,0 km/h (0 Bft) 100 %
01.01.2022 21:10 5,6 C 5,6 C 5,7 C 92 % 1023,8 hPa 0,0 l/m 0,0 km/h (0 Bft) W-SW 247 0 min 0,000 mm 0 W/m 4,4 C 5,6 C 1,6 km/h (1 Bft) 100 %
01.01.2022 21:20 5,5 C 5,5 C 5,6 C 92 % 1023,6 hPa 0,0 l/m 0,0 km/h (0 Bft) W 270 0 min 0,000 mm 0 W/m 4,3 C 5,5 C 3,2 km/h (1 Bft) 100 %
01.01.2022 21:30 5,6 C 5,5 C 5,6 C 92 % 1023,5 hPa 0,0 l/m 0,0 km/h (0 Bft) N 0 0 min 0,000 mm 0 W/m 4,4 C 5,6 C 0,0 km/h (0 Bft) 100 %
01.01.2022 21:40 5,8 C 5,6 C 5,8 C 92 % 1023,5 hPa 0,0 l/m 0,0 km/h (0 Bft) N 0 0 min 0,000 mm 0 W/m 4,6 C 5,8 C 0,0 km/h (0 Bft) 100 %
01.01.2022 21:50 5,7 C 5,7 C 5,8 C 92 % 1023,6 hPa 0,0 l/m 0,0 km/h (0 Bft) N 0 0 min 0,000 mm 0 W/m 4,5 C 5,7 C 0,0 km/h (0 Bft) 100 %
01.01.2022 22:00 5,6 C 5,6 C 5,7 C 92 % 1023,4 hPa 0,0 l/m 0,0 km/h (0 Bft) N 0 0 min 0,000 mm 0 W/m 4,4 C 5,6 C 0,0 km/h (0 Bft) 100 %
01.01.2022 22:10 5,6 C 5,6 C 5,6 C 92 % 1023,4 hPa 0,0 l/m 0,0 km/h (0 Bft) N 0 0 min 0,000 mm 0 W/m 4,4 C 5,6 C 0,0 km/h (0 Bft) 100 %
01.01.2022 22:20 5,6 C 5,6 C 5,6 C 92 % 1023,5 hPa 0,0 l/m 0,0 km/h (0 Bft) N 0 0 min 0,000 mm 0 W/m 4,4 C 5,6 C 0,0 km/h (0 Bft) 100 %
01.01.2022 22:30 5,2 C 5,2 C 5,6 C 92 % 1023,4 hPa 0,0 l/m 0,0 km/h (0 Bft) N 0 0 min 0,000 mm 0 W/m 4,0 C 5,2 C 0,0 km/h (0 Bft) 100 %
01.01.2022 22:40 5,3 C 5,2 C 5,3 C 92 % 1023,2 hPa 0,0 l/m 0,0 km/h (0 Bft) N 0 0 min 0,000 mm 0 W/m 4,1 C 5,3 C 0,0 km/h (0 Bft) 100 %
01.01.2022 22:50 5,3 C 5,3 C 5,4 C 92 % 1023,3 hPa 0,0 l/m 0,0 km/h (0 Bft) N 0 0 min 0,000 mm 0 W/m 4,1 C 5,3 C 0,0 km/h (0 Bft) 100 %
01.01.2022 23:00 4,9 C 4,9 C 5,3 C 92 % 1023,3 hPa 0,0 l/m 0,0 km/h (0 Bft) N 0 0 min 0,000 mm 0 W/m 3,7 C 4,9 C 0,0 km/h (0 Bft) 91 %
01.01.2022 23:10 4,5 C 4,5 C 4,9 C 92 % 1023,3 hPa 0,0 l/m 0,0 km/h (0 Bft) N 0 0 min 0,000 mm 0 W/m 3,3 C 4,5 C 0,0 km/h (0 Bft) 100 %
01.01.2022 23:20 4,3 C 4,2 C 4,5 C 92 % 1023,3 hPa 0,0 l/m 0,0 km/h (0 Bft) N 0 0 min 0,000 mm 0 W/m 3,1 C 4,3 C 0,0 km/h (0 Bft) 100 %
01.01.2022 23:30 4,1 C 4,1 C 4,2 C 92 % 1023,1 hPa 0,0 l/m 0,0 km/h (0 Bft) N 0 0 min 0,000 mm 0 W/m 2,9 C 4,1 C 0,0 km/h (0 Bft) 100 %
01.01.2022 23:40 3,9 C 3,9 C 4,1 C 92 % 1022,9 hPa 0,0 l/m 0,0 km/h (0 Bft) N 0 0 min 0,000 mm 0 W/m 2,7 C 3,9 C 0,0 km/h (0 Bft) 100 %
01.01.2022 23:50 3,8 C 3,8 C 3,9 C 92 % 1023,0 hPa 0,0 l/m 0,0 km/h (0 Bft) N 0 0 min 0,000 mm 0 W/m 2,6 C 3,8 C 0,0 km/h (0 Bft) 100 %
_ Min-Zeit 23:50 23:50 23:50 16:00 23:40 - 00:00 - - - - - 23:50 23:50 00:40 08:20
Minimum _ 3,8 C 3,8 C 3,9 C 84 % 1022,9 hPa - 0,0 km/h (0 Bft) - - - - - 2,6 C 3,8 C 0,0 km/h (0 Bft) 89 %
_ Max-Zeit 16:20 16:10 16:20 00:00 10:30 00:00 06:00 - - 11:30 12:00 11:30 13:50 15:10 06:00 05:40
Maximum _ 12,0 C 11,9 C 12,0 C 93 % 1027,3 hPa 0,0 l/m 8,0 km/h
S-SW (2 Bft)
- - 10 min 0,076 mm 283 W/m 9,5 C 11,9 C 14,5 km/h
S-SW (3 Bft)
100 %
Durchschnitt _ 8,9 C 8,9 C 9,0 C 91 % 1025,5 hPa #0,0 l/m 0,3 km/h (0 Bft) SW - #2:30 h #0,356 mm 111 W/m 7,5 C 8,9 C 2,2 km/h (1 Bft) 99 %
PRIVATE WETTERSTATION BILLIGHEIM-ALLFELD - www.neckar-odenwald-wetter.de - Holger Sonntag